This demonstration page uses our WeatherBlox Daily Observations layout. Learn more.

Hourly Observations for July 17, 2017

Temp ( °F °C ) Dew Point ( °F °C ) Humidity (%) Winds ( mph kmh ) Pressure ( in mb ) Visibility ( mi km ) Precip ( " mm )
12:54 am 00:54 Clear 78 25.6 70 21.1 76 76 S 5 7 29.93 1013 10 16.0934 0 0
1:54 am 01:54 Clear 77 25 69 20.6 77 77 Calm 29.93 1014 10 16.0934 0 0
2:54 am 02:54 Clear 76 24.4 69 20.6 79 79 Calm 29.93 1014 10 16.0934 0 0
3:54 am 03:54 Clear 73 22.8 68 20 84 84 S 3 6 29.93 1014 10 16.0934 0 0
4:54 am 04:54 Clear 72 22.2 67 19.4 84 84 S 3 6 29.93 1014 10 16.0934 0 0
5:54 am 05:54 Clear 72 22.2 67 19.4 84 84 Calm 29.94 1014 10 16.0934 0 0
6:54 am 06:54 Sunny 72 22.2 67 19.4 84 84 SSE 6 9 29.96 1014 10 16.0934 0 0
7:54 am 07:54 Sunny 75 23.9 68 20 79 79 Calm 29.96 1014 10 16.0934 0 0
8:54 am 08:54 Sunny 78 25.6 67 19.4 69 69 SSW 5 7 29.96 1015 10 16.0934 0 0
9:54 am 09:54 Sunny 82 27.8 68 20 63 63 SSW 6 9 29.96 1014 10 16.0934 0 0
10:54 am 10:54 Sunny 85 29.4 71 21.7 63 63 SSW 5 7 29.93 1014 10 16.0934 0 0
11:54 am 11:54 Sunny 88 31.1 69 20.6 54 54 S 10 17 29.92 1013 10 16.0934 0 0
12:54 pm 12:54 Sunny 89 31.7 68 20 50 50 S 12 19 29.92 1013 10 16.0934 0 0
1:54 pm 13:54 Sunny 91 32.8 66 18.9 44 44 SSW 10 17 29.91 1013 10 16.0934 0 0
2:54 pm 14:54 Sunny 92 33.3 67 19.4 44 44 S 8 13 29.9 1013 10 16.0934 0 0
3:54 pm 15:54 Sunny 92 33.3 66 18.9 43 43 S 15 24 29.89 1012 10 16.0934 0 0
4:54 pm 16:54 Sunny 93 33.9 68 20 44 44 SSE 14 22 29.88 1012 10 16.0934 0 0
5:54 pm 17:54 Sunny 92 33.3 67 19.4 44 44 SSE 14 22 29.86 1011 10 16.0934 0 0
6:54 pm 18:54 Sunny 92 33.3 67 19.4 44 44 SSE 13 20 29.85 1011 10 16.0934 0 0
7:54 pm 19:54 Sunny 87 30.6 72 22.2 61 61 ESE 8 13 29.86 1011 10 16.0934 0 0
8:54 pm 20:54 Sunny 84 28.9 67 19.4 57 57 S 8 13 29.84 1011 10 16.0934 0 0
9:54 pm 21:54 Clear 83 28.3 66 18.9 57 57 S 10 17 29.86 1011 10 16.0934 0 0
10:54 pm 22:54 Clear 84 28.9 66 18.9 55 55 WSW 10 17 29.89 1012 10 16.0934 0 0
11:54 pm 23:54 Clear 81 27.2 69 20.6 67 67 WSW 10 17 29.91 1013 10 16.0934 0 0

Powered by AerisWeather